Find Starlink 31753

NORAD ID: 59484 Int'l Des: 2024-071 Owner: SPXS Country: US Constellation: starlink operational
LEOCIRCULAR

当前视图

正在加载3D地球...

About Starlink 31753

Starlink 31753 (NORAD 59484) is a starlink constellation satellite (v2 mini) launched Apr 13, 2024 by SPXS of US. It operates in LEO, CIRCULAR orbit with a mass of 730.00 kg.

即将过境

Passes for default location (London). Set your location on the main map for personalized predictions.

高度历史

Loading altitude history...

两行轨道根数

1 59484U 24071A 26265.16887982 .00000906 00000-0 42433-4 0 9999
2 59484 43.0022 310.2127 0001271 277.7162 82.3545 15.27573933138253
Epoch: Sep 22, 2026 • Age: 25 hours

当前状态

高度 490.2 km
远地点 / 近地点 N/A
速度 7.62 km/s
星下点 -29.63°S, 169.45°W
发射日期 Apr 13, 2024
运行时间 2.4 years
类型 internet

技术详情

分类 Payload
质量 730.00 kg
干质量 700.00 kg
长度 0.30 m
跨度 29.00 m
形状 ? Box + pan
制造商 SPXS
平台类型 Starlink V2M
阶段状态 In Orbit
所有者/国家 SPXS/US

Most Searched